Volver al catálogo

COSMOS 1275 DEB

ActivoPO
NORAD 42143·DEBRIS·🇷🇺 Russia

Lanzado Jun 4, 1981 desde Plesetsk Cosmodrome

Loading…

Próximos Pases (próximas 24 horas)

TLE

EnvejeciendoSource: Space-Track

Época: Sep 9, 2026, 09:01 UTC

1 42143U 81053RF  26252.37631221  .00000963  00000-0  86175-3 0  9991
2 42143  83.0149 126.6283 0093941 137.8069 223.0371 13.81359996642519

Sigue COSMOS 1275 DEB en tiempo real con AllMySat

Download on the App Store